Weather History for North Adams, MA

Change the Weather History Date:

Saturday, December 8, 2012

  Actual Average Record
Temperature  
Mean Temperature 40 °F -  
Max Temperature 46 °F 37 °F 48 °F (2004)
Min Temperature 35 °F 23 °F 3 °F (2003)
Degree Days  
Heating Degree Days 25    
Moisture  
Dew Point 37 °F    
Average Humidity 90    
Maximum Humidity 100    
Minimum Humidity 81    
Precipitation  
Precipitation 0.20 in - - ()
Sea Level Pressure  
Sea Level Pressure 29.93 in    
Wind  
Wind Speed 1 mph (ESE)    
Max Wind Speed 8 mph    
Max Gust Speed -    
Visibility 6 miles    
Events Rain    
Averages and records for this station are not official NWS values.
T = Trace of Precipitation, MM = Missing Value Source: NWS Daily Summary

Daily Weather History Graph

Daily Weather History Graph

Search for Another Location

Airport:

Trip Planner

Search our weather history database for the weather conditions in past years. The results will help you decide how hot, cold, wet, or windy it might be!

Date:

Astronomy

Dec. 08, 2012 Rise Set
Actual Time 7:10 AM EST 4:18 PM EST
Civil Twilight 6:38 AM EST 4:50 PM EST
Nautical Twilight 6:03 AM EST 5:26 PM EST
Astronomical Twilight 5:29 AM EST 6:00 PM EST
Moon 1:26 AM EST (12/8) 12:52 PM EST (12/8)
Length of Visible Light 10h 12m
Length of Day
9h 08m
Waning Crescent, 28% of the Moon is Illuminated
Dec 8
Waning Crescent
Dec 13
New
Dec 20
First Quarter
Dec 28
Full
Jan 4
Last Quarter

Hourly Weather History & Observations

Time (EST) Temp. Windchill Dew Point Humidity Pressure Visibility Wind Dir Wind Speed Gust Speed Precip Events Conditions
12:08 AM 35.6 °F - 33.8 °F 93% 30.02 in 3.0 mi Calm Calm - N/A   Overcast
12:13 AM 35.6 °F - 33.8 °F 93% 30.02 in 2.5 mi Calm Calm - N/A   Overcast
12:25 AM 35.6 °F - 33.8 °F 93% 30.02 in 3.0 mi Calm Calm - N/A   Overcast
12:52 AM 36.0 °F - 34.0 °F 93% 30.03 in 4.0 mi Calm Calm - N/A   Overcast
1:52 AM 36.0 °F - 34.0 °F 93% 30.02 in 4.0 mi Calm Calm - N/A   Overcast
2:00 AM 35.6 °F - 33.8 °F 93% 29.99 in 4.0 mi Calm Calm - N/A   Overcast
2:17 AM 35.6 °F - 33.8 °F 93% 29.99 in 2.5 mi Calm Calm - N/A   Overcast
2:21 AM 35.6 °F - 33.8 °F 93% 29.99 in 3.0 mi Calm Calm - N/A   Overcast
2:52 AM 36.0 °F - 34.0 °F 93% 30.01 in 4.0 mi Calm Calm - N/A   Overcast
3:24 AM 35.6 °F - 33.8 °F 93% 29.98 in 2.5 mi Calm Calm - 0.00 in Rain Light Rain
3:31 AM 35.6 °F - 33.8 °F 93% 29.98 in 3.0 mi Calm Calm - 0.01 in Rain Light Rain
3:52 AM 36.0 °F 31.1 °F 34.0 °F 93% 29.99 in 4.0 mi ESE 5.8 mph - 0.02 in Rain Light Rain
4:52 AM 37.0 °F - 34.0 °F 89% 29.98 in 6.0 mi Calm Calm - 0.04 in Rain Light Rain
5:52 AM 37.0 °F - 34.0 °F 89% 29.97 in 5.0 mi Calm Calm - 0.03 in Rain Light Rain
6:52 AM 37.0 °F - 35.1 °F 93% 29.96 in 4.0 mi Calm Calm - 0.02 in Rain Light Rain
7:22 AM 37.4 °F - 35.6 °F 93% 29.93 in 2.0 mi Calm Calm - 0.02 in Rain Light Rain
7:34 AM 37.4 °F - 35.6 °F 93% 29.93 in 2.0 mi Calm Calm - 0.03 in Rain Light Rain
7:52 AM 37.0 °F - 35.1 °F 93% 29.94 in 1.5 mi Calm Calm - 0.06 in Rain Light Rain
7:59 AM 37.4 °F - 35.6 °F 93% 29.92 in 1.2 mi Calm Calm - 0.01 in Rain Light Rain
8:05 AM 37.4 °F - 35.6 °F 93% 29.92 in 1.8 mi Calm Calm - 0.01 in Rain Light Rain
8:19 AM 37.4 °F - 37.4 °F 100% 29.91 in 2.0 mi Calm Calm - 0.02 in Rain Light Rain
8:34 AM 37.4 °F - 35.6 °F 93% 29.90 in 3.0 mi Calm Calm - 0.02 in Rain Light Rain
8:49 AM 37.4 °F - 35.6 °F 93% 29.90 in 4.0 mi Calm Calm - 0.03 in Rain Light Rain
8:52 AM 37.9 °F - 37.0 °F 97% 29.92 in 4.0 mi Calm Calm - 0.03 in Rain Light Rain
9:52 AM 39.9 °F 36.7 °F 36.0 °F 86% 29.94 in 10.0 mi SE 4.6 mph - 0.00 in   Overcast
10:52 AM 42.1 °F 38.4 °F 37.9 °F 85% 29.92 in 10.0 mi Variable 5.8 mph - N/A   Overcast
11:52 AM 42.1 °F 37.7 °F 37.9 °F 85% 29.88 in 10.0 mi East 6.9 mph - N/A   Overcast
12:12 PM 42.8 °F 38.6 °F 37.4 °F 81% 29.85 in 10.0 mi Variable 6.9 mph - N/A   Overcast
12:52 PM 44.1 °F 41.5 °F 39.0 °F 82% 29.85 in 10.0 mi East 4.6 mph - N/A   Overcast
1:52 PM 44.1 °F 40.8 °F 39.0 °F 82% 29.85 in 10.0 mi East 5.8 mph - N/A   Overcast
2:19 PM 44.6 °F 40.7 °F 39.2 °F 81% 29.83 in 10.0 mi ESE 6.9 mph - N/A   Overcast
2:52 PM 45.0 °F 41.8 °F 39.9 °F 82% 29.85 in 10.0 mi East 5.8 mph - N/A   Overcast
3:36 PM 44.6 °F 42.2 °F 41.0 °F 87% 29.84 in 10.0 mi East 4.6 mph - N/A   Overcast
3:50 PM 44.6 °F 42.2 °F 41.0 °F 87% 29.84 in 10.0 mi ESE 4.6 mph - N/A   Mostly Cloudy
3:52 PM 45.0 °F 42.6 °F 41.0 °F 86% 29.86 in 10.0 mi ESE 4.6 mph - N/A   Mostly Cloudy
4:06 PM 44.6 °F - 39.2 °F 81% 29.85 in 10.0 mi Calm Calm - N/A   Overcast
4:52 PM 43.0 °F - 41.0 °F 93% 29.88 in 10.0 mi Calm Calm - N/A   Overcast
5:22 PM 42.8 °F - 41.0 °F 93% 29.86 in 10.0 mi Calm Calm - N/A   Overcast
5:52 PM 43.0 °F - 41.0 °F 93% 29.88 in 10.0 mi Calm Calm - N/A   Overcast
6:52 PM 42.1 °F - 41.0 °F 96% 29.90 in 10.0 mi Calm Calm - N/A   Overcast
7:52 PM 42.1 °F - 39.9 °F 92% 29.92 in 9.0 mi Calm Calm - N/A   Overcast
8:25 PM 42.8 °F - 39.2 °F 87% 29.90 in 10.0 mi Calm Calm - N/A   Overcast
8:52 PM 43.0 °F - 41.0 °F 93% 29.93 in 8.0 mi Calm Calm - N/A   Overcast
9:52 PM 43.0 °F - 41.0 °F 93% 29.94 in 7.0 mi Calm Calm - N/A   Overcast
10:52 PM 46.9 °F - 42.1 °F 83% 29.97 in 10.0 mi WNW 8.1 mph - N/A   Overcast